Regional Weather Roundup
Issued by NWS

Home | Current Version | Previous Version | Graphics & Text | Print | Product List | Glossary On
Versions: 1 2 3 4 5 6 7 8 9 10 11 12 13 14 15 16 17 18 19 20 21 22 23 24 25 26 27 28
000
ASUS45 KSLC 230410
RWRUT

UTAH REGIONAL WEATHER ROUNDUP
NATIONAL WEATHER SERVICE SALT LAKE CITY UT
1000 PM MDT MON MAY 22 2017

UTZ001>011-023>025-230500-

NORTHERN UTAH

CITY           SKY/WX    TMP DP  RH WIND       PRES   REMARKS
BRIGHAM CITY   MOCLDY    63  49  59 CALM      30.17R
HILL AFB       MOCLDY    64  38  38 SE3       30.18R
LOGAN          CLOUDY    64  48  56 NE3       30.17R
OGDEN          MOCLDY    61  42  49 S6        30.16R
SALT LAKE CITY MOCLDY    67  42  40 E3        30.15R
TOOELE VALLEY  PTCLDY    54  45  71 SW6       30.17R
WENDOVER       CLEAR     68  33  27 W8        30.15R
HEBER CITY     PTCLDY    52  37  58 E8        30.20R
WEST JORDAN    PTCLDY    65  49  57 W3        30.18S

$$

UTZ011>015-024>027-230500-

CENTRAL/NORTHEAST UTAH

CITY           SKY/WX    TMP DP  RH WIND       PRES   REMARKS
PROVO AIRPORT  PTCLDY    64  42  44 CALM      30.18R
MOAB/CANYONLAN PTCLDY    72  30  21 NW16      30.04R
DELTA          CLEAR     59  32  36 NE3       30.18R
PRICE          PTCLDY    59  32  36 NW9       30.19R
ROOSEVELT      MOCLDY    57  36  44 E21G28    30.25R
VERNAL         CLOUDY    52  36  54 NE14G24   30.29R

$$

UTZ013>016-019>022-027-230500-

SOUTHERN UTAH

CITY           SKY/WX    TMP DP  RH WIND       PRES   REMARKS
BRYCE CANYON   CLEAR     54  26  34 W12       30.31R
CEDAR CITY     CLEAR     54  28  36 NE6       30.19R
MILFORD        CLEAR     54  32  43 NW5       30.18R
ST GEORGE      PTCLDY    80  29  15 NE14G25   30.01R
HANKSVILLE     CLEAR     72  27  18 N13       30.11R
BLANDING       CLEAR     51  24  35 N8        30.21S

$$

REGIONAL REPORTS     COLORADO/ARIZONA

CITY           SKY/WX    TMP DP  RH WIND       PRES   REMARKS
CRAIG, CO      LGT RAIN  42  35  76 SE9       30.32R
GRAND JUNCTION MOCLDY    61  38  42 VRB7      30.17R
RIFLE, CO      CLOUDY    54  39  57 W12       30.23R
MONTROSE, CO   PTCLDY    59  34  39 NE6       30.18R
CORTEZ, CO     CLEAR     56  30  37 N5        30.14R
COLORADO CITY    N/A     72  23  16 CALM      30.16R
PAGE, AZ       CLEAR     70  36  28 CALM      30.05R
GRAND CANYON   CLEAR     43  26  51 CALM      30.25R
KINGMAN, AZ    CLEAR     69  26  20 CALM      30.04R
FLAGSTAFF, AZ  CLEAR     52  25  35 CALM      30.26R

$$

REGIONAL REPORTS    NEVADA/IDAHO/WYOMING

CITY           SKY/WX    TMP DP  RH WIND       PRES   REMARKS
LAS VEGAS, NV  CLEAR     90  32  12 CALM      29.92R
ELY, NY        CLEAR     56  25  30 NW8       30.24R
ELKO, NV       CLEAR     62  40  44 NW6       30.19R
POCATELLO, ID  CLOUDY    63  42  46 S10       30.17R
BURLEY, ID     CLEAR     63  40  42 SW7       30.14R
FORT BRIDGER,  CLOUDY    46  35  66 SE15      30.35R
EVANSTON, WY   CLOUDY    53  41  63 NW8       30.29R
ROCK SPRINGS,  CLOUDY    40  36  86 SE8       30.34R WCI  34
KEMMERER, WY     N/A     43  32  65 SE5G18    30.35R

$$




USA.gov is the U.S. government's official web portal to all federal, state and local government web resources and services.